Regional Weather Roundup
Issued by NWS

Home | Current Version | Previous Version | Graphics & Text | Print | Product List | Glossary On
Versions: 1 2 3 4 5 6 7 8 9 10 11 12 13 14 15 16 17 18 19 20 21 22 23 24 25 26 27 28 29 30 31 32 33 34 35 36 37 38 39 40 41 42 43 44 45 46 47 48 49 50
322
ASUS43 KDMX 211306
RWRIA

WEATHER ROUNDUP FOR IOWA
NATIONAL WEATHER SERVICE DES MOINES IA
800 AM CDT FRI JUL 21 2017

NOTE: "FAIR" INDICATES FEW OR NO CLOUDS BELOW 12,000 FEET WITH NO
SIGNIFICANT WEATHER AND/OR OBSTRUCTIONS TO VISIBILITY.

* - THESE STATIONS ARE NOT NWS STATIONS...THUS NOT UNDER NWS
QUALITY CONTROL.  THEY ALSO DO NOT REPORT WEATHER SUCH
AS PRECIPITATION OR FOG.

IAZ001>003-012>014-020>022-031>034-043>046-211400-
   NORTHWEST IOWA

CITY           SKY/WX    TMP DP  RH WIND       PRES   REMARKS
CARROLL *      DRIZZLE   79  68  69 NW15G23   29.86S HX  81
CHEROKEE *     CLOUDY    73  73  98 S3        29.87R
DENISON *      CLOUDY    77  73  88 CALM      29.89R
ORANGE CITY *  CLOUDY    72  72 100 CALM      29.86F
SHELDON *      CLOUDY    72  70  94 NE6G13    29.90R
SIOUX CITY     CLOUDY    77  74  90 SE9       29.82S
SPENCER        LGT RAIN  73  70  90 NE6       29.93R
STORM LAKE *     N/A     73  72  94 SE7G13    29.88F
$$

IAZ055>058-069>071-079>083-090>094-211400-
   SOUTHWEST IOWA

CITY           SKY/WX    TMP DP  RH WIND       PRES   REMARKS
ATLANTIC *     MOSUNNY   81  73  78 SE6       29.89S HX  85
AUDUBON *      PTSUNNY   75  72  88 SE3       29.90S
CLARINDA *     SUNNY     81  75  83 S8        29.91S HX  86
COUNCIL BLFS * CLOUDY    81  73  78 S8G14     29.86S HX  85
CRESTON *      MOSUNNY   81  73  78 S14       29.93S HX  85
HARLAN  *      CLOUDY    77  75  94 SE6       29.91S
LAMONI         SUNNY     80  75  84 S10       29.93S HX  85
RED OAK *      SUNNY     81  73  78 S7        29.88S HX  85
SHENANDOAH *   MOSUNNY   81  73  78 MISG      29.88S HX  85
$$

IAZ047>049-059>061-072>074-084-211400-
   CENTRAL IOWA

CITY           SKY/WX    TMP DP  RH WIND       PRES   REMARKS
AMES           MOSUNNY   74  74 100 SE5       29.90R
ANKENY *       MOSUNNY   79  75  89 S5        29.91R HX  82
BOONE *        CLOUDY    75  73  94 S7        29.89R
CHARITON *     CLOUDY    82  75  78 SW8       29.92S HX  89
DES MOINES     PTSUNNY   80  76  87 S7        29.90R HX  86
GRINNELL*      MOSUNNY   73  70  89 E7        29.96R
KNOXVILLE *    CLOUDY    79  73  83 SE3       29.91R HX  82
MARSHALLTOWN   PTSUNNY   73  71  93 SE15      29.93R
NEWTON *       CLOUDY    75  72  88 SE9       29.93R
PELLA *        CLOUDY    77  71  81 SE6       29.94R
$$

IAZ004>006-015-016-023>025-035-036-211400-
   NORTH CENTRAL IOWA

CITY           SKY/WX    TMP DP  RH WIND       PRES   REMARKS
ALGONA *       CLOUDY    73  72  94 S6        29.90S
CLARION *      CLOUDY    75  73  94 SE7G14    29.90R
ESTHERVILLE    CLOUDY    71  71 100 NE6       29.91R
FORT DODGE *   CLOUDY    75  70  83 S15G21    29.90R
MASON CITY     CLOUDY    73  71  93 SE9       29.95R
FOREST CITY *  HVY RAIN  73  72  94 SE5       29.93R
WEBSTER CITY * PTSUNNY   77  72  83 SE5       29.87S
IOWA FALLS *     N/A     74  71  90 SE13      29.93S
$$

IAZ007>011-017>019-026>030-037>042-050>054-066-211400-
   NORTHEAST IOWA

CITY           SKY/WX    TMP DP  RH WIND       PRES   REMARKS
CEDAR RAPIDS   PTSUNNY   73  73 100 SE7       29.97R
CHARLES CITY * CLOUDY    72  72 100 E10       29.93F FOG
CLINTON *      CLOUDY    72  71  97 NW6       30.01R
DECORAH *      CLOUDY    70  70 100 CALM      29.93F
DUBUQUE        LGT RAIN  70  69  97 S6        29.98R
MONTICELLO *   CLOUDY    72  72 100 SE6       29.96R
OELWEIN *      CLOUDY    70  70 100 NW12      29.96R
WATERLOO       CLOUDY    74  67  78 E9        29.93R
$$

IAZ064-065-067-068-078-211400-
   EAST CENTRAL IOWA

CITY           SKY/WX    TMP DP  RH WIND       PRES   REMARKS
DAVENPORT      LGT RAIN  74  70  87 N8        30.00R
IOWA CITY      CLOUDY    75  71  87 NE8       29.99R
MT. PLEASANT * MOSUNNY   78  72  79 SE10      29.97R HX  81
MUSCATINE *    MOSUNNY   75  72  88 S9        29.96S
QUAD CITIES    CLOUDY    74  69  85 CALM      29.96S
$$

IAZ062-063-075>077-085>089-095>099-211400-
   SOUTHEAST IOWA

CITY           SKY/WX    TMP DP  RH WIND       PRES   REMARKS
BURLINGTON     PTSUNNY   80  73  79 SE13      29.98R HX  84
FAIRFIELD *    CLOUDY    79  70  73 S12G18    29.95S HX  81
FORT MADISON * CLOUDY    79  73  83 SE8       29.99R HX  82
KEOKUK *       MOSUNNY   79  75  89 SE9       29.98R HX  82
OSKALOOSA *      N/A     75  70  84 SE10      29.94S
CENTERVILLE *    N/A     81  75  83 S3        29.95F HX  86
OTTUMWA        PTSUNNY   78  72  81 SE9       29.93R HX  80
WASHINGTON *   CLOUDY    75  73  94 SE9       29.97S
$$

ABBREVIATIONS USED IN REMARKS
   TC - TEMPERATURES IN CELSIUS
  WCI - WIND CHILL INDEX
   HX - HEAT INDEX
  VSB - VISIBILITY
$$





USA.gov is the U.S. government's official web portal to all federal, state and local government web resources and services.